Flag for U.S.A. Weather past 2 weeks in Leesburg, Virginia, U.S.A.

Now
46 °F

Passing clouds.


Feels Like: 46 °F
Forecast: 42 / 60 °F
Wind: No wind

Location: Leesburg / Godfrey

Current Time: Apr 26, 2015 at 10:59:46 PM

Latest Report: Apr 26, 2015 at 10:15 PM


Visibility: 10 mi

Pressure: 29.74 "Hg

Humidity: 71%

Dew point: 37 °F

Location of LeesburgLocation

Historic Weather in Leesburg — Graph

°F

Leesburg temperature yesterday

Maximum temperature yesterday: 52 °F (at 2:35 PM)
Minimum temperature yesterday: 37 °F (at 2:35 AM)
Average temperature yesterday: 45 °F

Past Weeks' High & Low Weather Summary

 TemperatureHumidityPressure
High81 °F (Apr 20, 3:55 PM)100% (Apr 14, 6:15 AM)30.44 "Hg (Apr 14, 6:15 AM)
Low34 °F (Apr 12, 6:15 AM)25% (Apr 16, 1:15 PM)29.47 "Hg (Apr 20, 7:35 PM)
Average57 °F61%30.01 "Hg
* Reported Apr 11 9:15 PM — Apr 26 9:35 PM, Leesburg, Weather by CustomWeather, © 2015

Note: Actual official high and low records may vary slightly from our data, if they occured in-between our weather recording intervals... More about our weather records

Advertising

Leesburg weather history for previous 24 hours

 ConditionsComfort  
Time TempWeatherWind HumidityBarometerVisibility
9:35 PM
Sun, Apr 26
48 °FClear.3 mph66%29.73 "Hg10 mi
9:15 PM50 °FClear.No wind58%29.72 "Hg10 mi
8:55 PM54 °FSunny.No wind51%29.72 "Hg10 mi
8:35 PM54 °FSunny.No wind51%29.71 "Hg10 mi
8:15 PM59 °FSunny.No wind36%29.71 "Hg10 mi
7:55 PM59 °FSunny.3 mph36%29.70 "Hg10 mi
7:35 PM61 °FSunny.6 mph34%29.70 "Hg10 mi
7:15 PM61 °FSunny.6 mph34%29.70 "Hg10 mi
6:55 PM63 °FSunny.8 mph34%29.70 "Hg10 mi
6:35 PM63 °FSunny.8 mph34%29.70 "Hg10 mi
5:55 PM63 °FSunny.7 mph37%29.69 "Hg10 mi
5:15 PM63 °FScattered clouds.5 mph37%29.69 "Hg10 mi
4:55 PM63 °FSunny.7 mph34%29.69 "Hg10 mi
4:35 PM63 °FSunny.10 mph37%29.69 "Hg10 mi
4:15 PM63 °FSunny.9 mph37%29.70 "Hg10 mi
3:55 PM63 °FSunny.12 mph34%29.70 "Hg10 mi
3:35 PM63 °FSunny.5 mph32%29.70 "Hg10 mi
3:15 PM63 °FScattered clouds.13 mph34%29.71 "Hg10 mi
2:55 PM61 °FScattered clouds.10 mph36%29.71 "Hg10 mi
2:35 PM61 °FScattered clouds.10 mph36%29.71 "Hg10 mi
2:15 PM61 °FPartly sunny.9 mph39%29.71 "Hg10 mi
1:55 PM61 °FScattered clouds.No wind42%29.71 "Hg10 mi
1:35 PM59 °FScattered clouds.3 mph45%29.72 "Hg10 mi
1:15 PM59 °FScattered clouds.8 mph48%29.73 "Hg10 mi
12:55 PM59 °FSunny.8 mph45%29.73 "Hg10 mi
12:35 PM59 °FSunny.5 mph39%29.74 "Hg10 mi
12:15 PM59 °FSunny.7 mph42%29.75 "Hg10 mi
11:55 AM57 °FSunny.8 mph44%29.75 "Hg10 mi
11:35 AM55 °FSunny.9 mph47%29.75 "Hg10 mi
11:15 AM55 °FSunny.7 mph51%29.75 "Hg10 mi
10:55 AM54 °FSunny.9 mph54%29.75 "Hg10 mi
10:35 AM54 °FSunny.7 mph58%29.74 "Hg10 mi
10:15 AM52 °FSunny.5 mph58%29.74 "Hg10 mi
9:55 AM52 °FSunny.8 mph58%29.73 "Hg10 mi
9:35 AM50 °FSunny.10 mph62%29.73 "Hg10 mi
9:15 AM50 °FSunny.13 mph62%29.73 "Hg10 mi
8:55 AM48 °FScattered clouds.9 mph66%29.73 "Hg10 mi
8:35 AM46 °FScattered clouds.8 mph82%29.72 "Hg10 mi
8:15 AM45 °FPartly sunny.6 mph87%29.71 "Hg10 mi
7:55 AM45 °FPartly sunny.5 mph87%29.70 "Hg10 mi
7:35 AM43 °FOvercast.3 mph100%29.70 "Hg10 mi
7:15 AM43 °FOvercast.No wind100%29.71 "Hg10 mi
6:55 AM43 °FOvercast.No wind93%29.71 "Hg10 mi
6:35 AM41 °FOvercast.No wind100%29.70 "Hg10 mi
6:15 AM41 °FOvercast.No wind100%29.70 "Hg10 mi
5:55 AM41 °FOvercast.No wind100%29.70 "Hg10 mi
5:35 AM41 °FOvercast.No wind100%29.69 "Hg10 mi
5:15 AM41 °FOvercast.No wind100%29.70 "Hg10 mi
4:55 AM41 °FOvercast.3 mph100%29.69 "Hg10 mi
4:35 AM41 °FMostly cloudy.6 mph100%29.70 "Hg10 mi
4:15 AM41 °FOvercast.No wind100%29.70 "Hg10 mi
3:55 AM41 °FOvercast.No wind100%29.70 "Hg10 mi
3:15 AM41 °FMostly cloudy.3 mph100%29.70 "Hg10 mi
2:55 AM41 °FMostly cloudy.3 mph100%29.71 "Hg10 mi
2:35 AM41 °FOvercast.3 mph100%29.71 "Hg10 mi
2:15 AM41 °FMostly cloudy.No wind100%29.70 "Hg10 mi
1:55 AM41 °FOvercast.5 mph100%29.70 "Hg10 mi
1:35 AM41 °FOvercast.3 mph100%29.70 "Hg10 mi
1:15 AM41 °FOvercast.5 mph100%29.70 "Hg10 mi
12:55 AM41 °FOvercast.5 mph100%29.71 "Hg7 mi
12:35 AM41 °FMostly cloudy.No wind100%29.73 "Hg7 mi
12:15 AM41 °FDrizzle. Overcast.No wind100%29.73 "Hg10 mi
11:55 PM
Sat, Apr 25
41 °FLight rain. Overcast.No wind100%29.74 "Hg10 mi
11:15 PM41 °FLight rain. Mostly cloudy.No wind100%29.76 "Hg10 mi
10:55 PM41 °FLight rain. Mostly cloudy.No wind100%29.76 "Hg7 mi
10:35 PM41 °FRain. Mostly cloudy.3 mph100%29.77 "Hg4 mi
10:15 PM41 °FRain. Overcast.5 mph100%29.79 "Hg7 mi
Weather by CustomWeather, © 2015

See weather overviewHow to use our weather pages